| time (UTC) | temp F | wind direction | speed MPH | gust MPH | rain 1hr in | rain 24hr in | rain mn in | humidity % | barometer mb |
| 20260510215003 | 59 | 196 | 1.0 | 3.0 | 0.00 | 0.15 | 0.15 | 72 | 1011.6 |
| 20260510214503 | 59 | 204 | 1.0 | 3.0 | 0.00 | 0.15 | 0.15 | 73 | 1011.6 |
| 20260510214003 | 59 | 281 | 0.0 | 2.0 | 0.00 | 0.15 | 0.15 | 73 | 1011.7 |
| 20260510213503 | 59 | 291 | 0.0 | 4.0 | 0.00 | 0.15 | 0.15 | 73 | 1011.7 |
| 20260510213003 | 59 | 300 | 1.0 | 4.0 | 0.00 | 0.15 | 0.15 | 74 | 1011.6 |
| 20260510212503 | 58 | 306 | 1.0 | 3.0 | 0.00 | 0.15 | 0.15 | 75 | 1011.6 |
| 20260510212003 | 58 | 307 | 1.0 | 2.0 | 0.00 | 0.15 | 0.15 | 77 | 1011.6 |
| 20260510211503 | 58 | 307 | 0.0 | 3.0 | 0.00 | 0.15 | 0.15 | 79 | 1011.5 |
| 20260510211003 | 58 | 307 | 1.0 | 3.0 | 0.00 | 0.15 | 0.15 | 80 | 1011.5 |
| 20260510210503 | 58 | 307 | 1.0 | 3.0 | 0.00 | 0.15 | 0.15 | 81 | 1011.4 |
| 20260510210003 | 59 | 307 | 1.0 | 3.0 | 0.00 | 0.15 | 0.15 | 83 | 1011.4 |
| 20260510205503 | 59 | 307 | 1.0 | 3.0 | 0.00 | 0.15 | 0.15 | 83 | 1011.4 |
| 20260510205003 | 59 | 308 | 1.0 | 3.0 | 0.00 | 0.15 | 0.15 | 83 | 1011.4 |
| 20260510204503 | 59 | 308 | 1.0 | 3.0 | 0.00 | 0.15 | 0.15 | 82 | 1011.4 |
| 20260510204003 | 59 | 308 | 1.0 | 3.0 | 0.00 | 0.15 | 0.15 | 82 | 1011.2 |
| 20260510203503 | 59 | 308 | 1.0 | 3.0 | 0.00 | 0.15 | 0.15 | 81 | 1011.2 |
| 20260510203003 | 60 | 303 | 1.0 | 4.0 | 0.00 | 0.15 | 0.15 | 81 | 1011.1 |
| 20260510202503 | 60 | 298 | 1.0 | 4.0 | 0.00 | 0.15 | 0.15 | 81 | 1010.9 |
| 20260510202003 | 60 | 301 | 1.0 | 4.0 | 0.00 | 0.15 | 0.15 | 80 | 1010.8 |
| 20260510201517 | 60 | 305 | 1.0 | 3.0 | 0.00 | 0.15 | 0.15 | 79 | 1010.7 |
| 20260510201003 | 60 | 305 | 1.0 | 3.0 | 0.00 | 0.15 | 0.15 | 79 | 1010.7 |
| 20260510200503 | 60 | 304 | 1.0 | 3.0 | 0.00 | 0.15 | 0.15 | 78 | 1010.4 |
| 20260510200003 | 60 | 303 | 1.0 | 3.0 | 0.00 | 0.15 | 0.15 | 77 | 1010.3 |
| 20260510195503 | 60 | 311 | 2.0 | 5.0 | 0.00 | 0.15 | 0.15 | 76 | 1010.3 |
| 20260510195003 | 59 | 313 | 2.0 | 5.0 | 0.00 | 0.15 | 0.15 | 75 | 1010.3 |
| 20260510194503 | 59 | 311 | 3.0 | 5.0 | 0.00 | 0.15 | 0.15 | 74 | 1010.2 |
| 20260510194003 | 59 | 311 | 3.0 | 5.0 | 0.00 | 0.15 | 0.15 | 74 | 1010.3 |
| 20260510193503 | 59 | 303 | 3.0 | 5.0 | 0.00 | 0.15 | 0.15 | 74 | 1010.1 |
| 20260510193003 | 58 | 304 | 3.0 | 5.0 | 0.00 | 0.15 | 0.15 | 74 | 1010.2 |
| 20260510192503 | 58 | 294 | 2.0 | 6.0 | 0.00 | 0.15 | 0.15 | 74 | 1010.1 |
| 20260510192003 | 58 | 254 | 2.0 | 6.0 | 0.00 | 0.15 | 0.15 | 73 | 1010.0 |
| 20260510191504 | 59 | 302 | 2.0 | 5.0 | 0.00 | 0.15 | 0.15 | 72 | 1010.0 |
| 20260510191003 | 59 | 304 | 2.0 | 4.0 | 0.00 | 0.15 | 0.15 | 74 | 1009.8 |
| 20260510190503 | 59 | 260 | 2.0 | 4.0 | 0.00 | 0.15 | 0.15 | 75 | 1009.8 |
| 20260510190003 | 59 | 237 | 2.0 | 4.0 | 0.00 | 0.15 | 0.15 | 74 | 1009.7 |
| 20260510185503 | 59 | 268 | 2.0 | 5.0 | 0.00 | 0.15 | 0.15 | 72 | 1009.7 |
| 20260510185003 | 60 | 323 | 2.0 | 5.0 | 0.00 | 0.15 | 0.15 | 72 | 1009.5 |
| 20260510184503 | 60 | 331 | 2.0 | 8.0 | 0.00 | 0.15 | 0.15 | 71 | 1009.4 |
| 20260510184003 | 60 | 3 | 2.0 | 8.0 | 0.00 | 0.15 | 0.15 | 75 | 1009.4 |
| 20260510183517 | 61 | 282 | 3.0 | 9.0 | 0.00 | 0.15 | 0.15 | 79 | 1009.6 |
| 20260510183003 | 61 | 283 | 3.0 | 9.0 | 0.00 | 0.15 | 0.15 | 79 | 1009.9 |
| 20260510182503 | 62 | 233 | 1.0 | 4.0 | 0.00 | 0.15 | 0.15 | 80 | 1009.6 |
| 20260510182003 | 62 | 197 | 1.0 | 2.0 | 0.00 | 0.15 | 0.15 | 79 | 1009.2 |
| 20260510181517 | 62 | 197 | 1.0 | 2.0 | 0.00 | 0.15 | 0.15 | 78 | 1009.0 |
| 20260510181003 | 62 | 197 | 0.0 | 2.0 | 0.00 | 0.15 | 0.15 | 79 | 1009.1 |
| 20260510180503 | 62 | 197 | 0.0 | 2.0 | 0.00 | 0.15 | 0.15 | 79 | 1009.2 |
| 20260510180003 | 62 | 197 | 0.0 | 2.0 | 0.00 | 0.15 | 0.15 | 77 | 1009.0 |
| 20260510175517 | 63 | 197 | 0.0 | 2.0 | 0.00 | 0.15 | 0.15 | 78 | 1009.0 |
| 20260510175003 | 63 | 196 | 1.0 | 3.0 | 0.00 | 0.15 | 0.15 | 77 | 1009.0 |
| 20260510174503 | 63 | 193 | 1.0 | 3.0 | 0.00 | 0.15 | 0.15 | 78 | 1009.0 |
| 20260510174017 | 64 | 187 | 1.0 | 2.0 | 0.00 | 0.15 | 0.15 | 78 | 1008.9 |
| 20260510173503 | 63 | 186 | 1.0 | 2.0 | 0.00 | 0.15 | 0.15 | 78 | 1008.9 |
| 20260510173003 | 63 | 186 | 1.0 | 2.0 | 0.00 | 0.15 | 0.15 | 78 | 1008.9 |
| 20260510172503 | 63 | 184 | 1.0 | 2.0 | 0.00 | 0.15 | 0.15 | 78 | 1009.0 |
| 20260510172003 | 63 | 189 | 1.0 | 3.0 | 0.00 | 0.15 | 0.15 | 78 | 1009.0 |
| 20260510171503 | 62 | 228 | 1.0 | 3.0 | 0.00 | 0.15 | 0.15 | 78 | 1009.0 |
| 20260510171017 | 62 | 212 | 2.0 | 3.0 | 0.00 | 0.15 | 0.15 | 78 | 1009.2 |
| 20260510170503 | 63 | 184 | 1.0 | 3.0 | 0.00 | 0.15 | 0.15 | 79 | 1009.1 |
| 20260510170003 | 63 | 154 | 1.0 | 2.0 | 0.00 | 0.15 | 0.15 | 81 | 1009.1 |
| 20260510165503 | 62 | 154 | 1.0 | 2.0 | 0.00 | 0.15 | 0.15 | 80 | 1009.2 |
| 20260510165003 | 63 | 155 | 1.0 | 2.0 | 0.00 | 0.15 | 0.15 | 81 | 1009.4 |
| 20260510164503 | 62 | 159 | 0.0 | 2.0 | 0.00 | 0.15 | 0.15 | 81 | 1009.5 |
| 20260510164003 | 61 | 160 | 1.0 | 2.0 | 0.00 | 0.15 | 0.15 | 82 | 1009.5 |
| 20260510163503 | 61 | 160 | 0.0 | 2.0 | 0.00 | 0.15 | 0.15 | 81 | 1009.6 |
| 20260510163003 | 61 | 160 | 1.0 | 2.0 | 0.00 | 0.15 | 0.15 | 81 | 1009.7 |
| 20260510162503 | 61 | 159 | 1.0 | 2.0 | 0.00 | 0.15 | 0.15 | 81 | 1009.9 |
| 20260510162003 | 60 | 158 | 1.0 | 4.0 | 0.00 | 0.15 | 0.15 | 80 | 1009.8 |
| 20260510161503 | 60 | 167 | 2.0 | 5.0 | 0.00 | 0.15 | 0.15 | 80 | 1009.8 |
| 20260510161003 | 60 | 177 | 2.0 | 5.0 | 0.00 | 0.15 | 0.15 | 81 | 1009.7 |
| 20260510160503 | 60 | 177 | 2.0 | 5.0 | 0.00 | 0.15 | 0.15 | 82 | 1009.7 |
| 20260510160003 | 60 | 170 | 2.0 | 5.0 | 0.00 | 0.15 | 0.15 | 85 | 1009.9 |
| 20260510155503 | 60 | 154 | 2.0 | 6.0 | 0.00 | 0.15 | 0.15 | 84 | 1010.1 |
| 20260510155017 | 59 | 155 | 3.0 | 6.0 | 0.00 | 0.15 | 0.15 | 84 | 1009.8 |
| 20260510154503 | 58 | 157 | 2.0 | 6.0 | 0.00 | 0.15 | 0.15 | 85 | 1009.8 |
| 20260510154003 | 58 | 147 | 2.0 | 7.0 | 0.01 | 0.15 | 0.15 | 84 | 1009.8 |
| 20260510153503 | 58 | 157 | 3.0 | 8.0 | 0.02 | 0.15 | 0.15 | 86 | 1010.0 |
| 20260510153017 | 58 | 146 | 2.0 | 8.0 | 0.03 | 0.15 | 0.15 | 86 | 1010.2 |
| 20260510152503 | 59 | 71 | 1.0 | 3.0 | 0.05 | 0.15 | 0.15 | 89 | 1009.8 |
| 20260510152003 | 58 | 108 | 1.0 | 6.0 | 0.05 | 0.15 | 0.15 | 89 | 1009.7 |
| 20260510151503 | 58 | 141 | 2.0 | 7.0 | 0.06 | 0.15 | 0.15 | 89 | 1009.7 |
| 20260510151003 | 57 | 147 | 2.0 | 7.0 | 0.06 | 0.15 | 0.15 | 88 | 1010.2 |
| 20260510150503 | 57 | 176 | 2.0 | 6.0 | 0.07 | 0.15 | 0.15 | 88 | 1010.6 |
| 20260510150003 | 57 | 234 | 1.0 | 3.0 | 0.08 | 0.15 | 0.15 | 87 | 1010.8 |
| 20260510145503 | 57 | 242 | 1.0 | 3.0 | 0.11 | 0.15 | 0.15 | 86 | 1010.9 |
| 20260510145003 | 57 | 235 | 1.0 | 3.0 | 0.15 | 0.15 | 0.15 | 85 | 1010.9 |
| 20260510144503 | 57 | 157 | 1.0 | 3.0 | 0.15 | 0.15 | 0.15 | 85 | 1011.1 |
| 20260510144003 | 57 | 119 | 1.0 | 4.0 | 0.14 | 0.14 | 0.14 | 84 | 1011.0 |
| 20260510143503 | 57 | 16 | 0.0 | 4.0 | 0.13 | 0.13 | 0.13 | 84 | 1011.2 |
| 20260510143007 | 57 | 3 | 1.0 | 3.0 | 0.12 | 0.12 | 0.12 | 83 | 1011.3 |
| 20260510142503 | 57 | 356 | 1.0 | 6.0 | 0.10 | 0.10 | 0.10 | 82 | 1011.4 |
| 20260510142003 | 56 | 328 | 4.0 | 11.0 | 0.10 | 0.10 | 0.10 | 82 | 1011.6 |
| 20260510141503 | 56 | 316 | 6.0 | 11.0 | 0.09 | 0.09 | 0.09 | 79 | 1011.6 |
| 20260510141017 | 57 | 298 | 6.0 | 14.0 | 0.09 | 0.09 | 0.09 | 79 | 1011.7 |
| 20260510140503 | 58 | 258 | 7.0 | 15.0 | 0.08 | 0.08 | 0.08 | 79 | 1011.7 |
| 20260510140017 | 60 | 230 | 5.0 | 15.0 | 0.07 | 0.07 | 0.07 | 77 | 1011.5 |
| 20260510135517 | 62 | 212 | 3.0 | 15.0 | 0.04 | 0.04 | 0.04 | 75 | 1011.2 |
| 20260510135003 | 63 | 250 | 2.0 | 8.0 | 0.00 | 0.00 | 0.00 | 73 | 1011.1 |
| 20260510134503 | 64 | 312 | 1.0 | 7.0 | 0.00 | 0.00 | 0.00 | 70 | 1010.8 |
| 20260510134018 | 65 | 347 | 1.0 | 4.0 | 0.00 | 0.00 | 0.00 | 69 | 1010.2 |
| 20260510133503 | 65 | 75 | 1.0 | 4.0 | 0.00 | 0.00 | 0.00 | 69 | 1009.8 |
| 20260510133003 | 65 | 89 | 2.0 | 6.0 | 0.00 | 0.00 | 0.00 | 69 | 1009.7 |
| 20260510132503 | 66 | 78 | 2.0 | 6.0 | 0.00 | 0.00 | 0.00 | 68 | 1009.3 |
| 20260510132017 | 66 | 30 | 2.0 | 4.0 | 0.00 | 0.00 | 0.00 | 67 | 1009.1 |
| 20260510131503 | 66 | 20 | 2.0 | 6.0 | 0.00 | 0.00 | 0.00 | 67 | 1009.0 |
| 20260510131006 | 66 | 91 | 2.0 | 6.0 | 0.00 | 0.00 | 0.00 | 66 | 1008.9 |
| 20260510130503 | 67 | 98 | 2.0 | 3.0 | 0.00 | 0.00 | 0.00 | 64 | 1008.9 |
| 20260510130003 | 67 | 147 | 2.0 | 4.0 | 0.00 | 0.00 | 0.00 | 64 | 1008.8 |
| 20260510125503 | 67 | 189 | 2.0 | 5.0 | 0.00 | 0.00 | 0.00 | 64 | 1008.8 |
| 20260510125003 | 67 | 122 | 1.0 | 5.0 | 0.00 | 0.00 | 0.00 | 61 | 1008.7 |
| 20260510124503 | 68 | 77 | 1.0 | 4.0 | 0.00 | 0.00 | 0.00 | 60 | 1008.8 |
| 20260510124003 | 68 | 77 | 1.0 | 4.0 | 0.00 | 0.00 | 0.00 | 58 | 1008.9 |
| 20260510123003 | 68 | 83 | 1.0 | 3.0 | 0.00 | 0.00 | 0.00 | 57 | 1008.9 |
| 20260510122503 | 68 | 46 | 1.0 | 4.0 | 0.00 | 0.00 | 0.00 | 56 | 1009.0 |
| 20260510122003 | 68 | 76 | 1.0 | 4.0 | 0.00 | 0.00 | 0.00 | 55 | 1009.0 |
| 20260510121503 | 68 | 99 | 2.0 | 4.0 | 0.00 | 0.00 | 0.00 | 53 | 1008.9 |
| 20260510121003 | 69 | 100 | 2.0 | 4.0 | 0.00 | 0.00 | 0.00 | 53 | 1009.1 |
| 20260510120517 | 70 | 76 | 2.0 | 6.0 | 0.00 | 0.00 | 0.00 | 51 | 1009.2 |
| 20260510120003 | 70 | 317 | 3.0 | 7.0 | 0.00 | 0.00 | 0.00 | 49 | 1009.3 |
| 20260510115503 | 70 | 306 | 3.0 | 8.0 | 0.00 | 0.00 | 0.00 | 49 | 1009.2 |
| 20260510115003 | 70 | 312 | 4.0 | 11.0 | 0.00 | 0.00 | 0.00 | 48 | 1009.1 |
| 20260510114503 | 70 | 311 | 5.0 | 11.0 | 0.00 | 0.00 | 0.00 | 52 | 1009.3 |
| 20260510114017 | 70 | 307 | 4.0 | 10.0 | 0.00 | 0.00 | 0.00 | 51 | 1009.3 |
| 20260510113503 | 71 | 309 | 4.0 | 10.0 | 0.00 | 0.00 | 0.00 | 49 | 1009.4 |
| 20260510113003 | 70 | 311 | 3.0 | 8.0 | 0.00 | 0.00 | 0.00 | 49 | 1009.4 |
| 20260510112503 | 70 | 292 | 3.0 | 8.0 | 0.00 | 0.00 | 0.00 | 50 | 1009.5 |
| 20260510112003 | 71 | 230 | 3.0 | 8.0 | 0.00 | 0.00 | 0.00 | 47 | 1009.5 |
| 20260510111503 | 70 | 186 | 4.0 | 8.0 | 0.00 | 0.00 | 0.00 | 47 | 1009.5 |
| 20260510111003 | 70 | 188 | 4.0 | 9.0 | 0.00 | 0.00 | 0.00 | 46 | 1009.7 |
| 20260510110503 | 70 | 205 | 4.0 | 9.0 | 0.00 | 0.00 | 0.00 | 46 | 1009.9 |
| 20260510110003 | 70 | 181 | 5.0 | 11.0 | 0.00 | 0.00 | 0.00 | 47 | 1009.9 |
| 20260510105503 | 71 | 169 | 5.0 | 11.0 | 0.00 | 0.00 | 0.00 | 45 | 1010.0 |
| 20260510105003 | 70 | 177 | 6.0 | 13.0 | 0.00 | 0.00 | 0.00 | 47 | 1010.1 |
| 20260510104517 | 69 | 177 | 7.0 | 13.0 | 0.00 | 0.00 | 0.00 | 48 | 1010.1 |
| 20260510104017 | 69 | 178 | 7.0 | 17.0 | 0.00 | 0.00 | 0.00 | 48 | 1010.2 |
| 20260510103503 | 69 | 178 | 8.0 | 17.0 | 0.00 | 0.00 | 0.00 | 47 | 1010.3 |
| 20260510103003 | 69 | 179 | 7.0 | 16.0 | 0.00 | 0.00 | 0.00 | 48 | 1010.2 |
| 20260510102503 | 70 | 173 | 7.0 | 16.0 | 0.00 | 0.00 | 0.00 | 48 | 1010.2 |
| 20260510102017 | 69 | 183 | 6.0 | 16.0 | 0.00 | 0.00 | 0.00 | 47 | 1010.3 |
| 20260510101503 | 69 | 215 | 3.0 | 11.0 | 0.00 | 0.00 | 0.00 | 49 | 1010.2 |
| 20260510101003 | 69 | 208 | 3.0 | 8.0 | 0.00 | 0.00 | 0.00 | 49 | 1010.4 |
| 20260510100503 | 69 | 184 | 2.0 | 8.0 | 0.00 | 0.00 | 0.00 | 52 | 1010.3 |
| 20260510100003 | 68 | 219 | 3.0 | 8.0 | 0.00 | 0.00 | 0.00 | 51 | 1010.1 |
| 20260510095503 | 68 | 174 | 5.0 | 14.0 | 0.00 | 0.00 | 0.00 | 52 | 1010.2 |
| 20260510095003 | 68 | 162 | 7.0 | 14.0 | 0.00 | 0.00 | 0.00 | 51 | 1010.2 |
| 20260510094503 | 68 | 172 | 7.0 | 14.0 | 0.00 | 0.00 | 0.00 | 49 | 1010.2 |
| 20260510094003 | 68 | 178 | 5.0 | 14.0 | 0.00 | 0.00 | 0.00 | 50 | 1010.3 |
| 20260510093503 | 68 | 181 | 4.0 | 10.0 | 0.00 | 0.00 | 0.00 | 49 | 1010.3 |
| 20260510093017 | 68 | 193 | 4.0 | 11.0 | 0.00 | 0.00 | 0.00 | 51 | 1010.3 |
| 20260510092517 | 68 | 180 | 5.0 | 13.0 | 0.00 | 0.00 | 0.00 | 49 | 1010.3 |
| 20260510092003 | 68 | 188 | 6.0 | 13.0 | 0.00 | 0.00 | 0.00 | 50 | 1010.4 |
| 20260510091503 | 68 | 200 | 5.0 | 9.0 | 0.00 | 0.00 | 0.00 | 50 | 1010.5 |
| 20260510091003 | 68 | 209 | 5.0 | 10.0 | 0.00 | 0.00 | 0.00 | 51 | 1010.4 |
| 20260510090517 | 68 | 195 | 6.0 | 12.0 | 0.00 | 0.00 | 0.00 | 51 | 1010.4 |
| 20260510090003 | 67 | 174 | 6.0 | 13.0 | 0.00 | 0.00 | 0.00 | 51 | 1010.5 |
| 20260510085503 | 67 | 182 | 6.0 | 13.0 | 0.00 | 0.00 | 0.00 | 51 | 1010.5 |
| 20260510085003 | 68 | 192 | 5.0 | 13.0 | 0.00 | 0.00 | 0.00 | 51 | 1010.4 |
| 20260510084503 | 67 | 175 | 6.0 | 14.0 | 0.00 | 0.00 | 0.00 | 51 | 1010.7 |
| 20260510084003 | 67 | 180 | 7.0 | 14.0 | 0.00 | 0.00 | 0.00 | 53 | 1010.5 |
| 20260510083503 | 66 | 193 | 6.0 | 13.0 | 0.00 | 0.00 | 0.00 | 53 | 1010.4 |
| 20260510083003 | 66 | 188 | 5.0 | 12.0 | 0.00 | 0.00 | 0.00 | 54 | 1010.4 |
| 20260510082503 | 66 | 173 | 5.0 | 14.0 | 0.00 | 0.00 | 0.00 | 54 | 1010.3 |
| 20260510082003 | 66 | 177 | 5.0 | 14.0 | 0.00 | 0.00 | 0.00 | 54 | 1010.4 |
| 20260510081503 | 65 | 176 | 4.0 | 10.0 | 0.00 | 0.00 | 0.00 | 55 | 1010.4 |
| 20260510081003 | 65 | 181 | 5.0 | 10.0 | 0.00 | 0.00 | 0.00 | 55 | 1010.4 |
| 20260510080517 | 65 | 190 | 5.0 | 10.0 | 0.00 | 0.00 | 0.00 | 55 | 1010.3 |
| 20260510080003 | 65 | 188 | 6.0 | 12.0 | 0.00 | 0.00 | 0.00 | 55 | 1010.2 |
| 20260510075503 | 65 | 186 | 5.0 | 12.0 | 0.00 | 0.00 | 0.00 | 55 | 1010.3 |
| 20260510075003 | 65 | 177 | 5.0 | 12.0 | 0.00 | 0.00 | 0.00 | 57 | 1010.2 |
| 20260510074503 | 65 | 186 | 5.0 | 12.0 | 0.00 | 0.00 | 0.00 | 57 | 1010.1 |
| 20260510074003 | 65 | 188 | 6.0 | 16.0 | 0.00 | 0.00 | 0.00 | 56 | 1010.1 |
| 20260510073503 | 65 | 182 | 6.0 | 16.0 | 0.00 | 0.00 | 0.00 | 57 | 1010.1 |
| 20260510073003 | 65 | 186 | 6.0 | 13.0 | 0.00 | 0.00 | 0.00 | 58 | 1009.8 |
| 20260510072503 | 65 | 195 | 7.0 | 16.0 | 0.00 | 0.00 | 0.00 | 58 | 1009.8 |
| 20260510072003 | 65 | 195 | 7.0 | 16.0 | 0.00 | 0.00 | 0.00 | 57 | 1009.8 |
| 20260510071504 | 64 | 183 | 8.0 | 17.0 | 0.00 | 0.00 | 0.00 | 58 | 1009.7 |
| 20260510071003 | 64 | 177 | 8.0 | 17.0 | 0.00 | 0.00 | 0.00 | 58 | 1009.6 |
| 20260510070503 | 64 | 176 | 7.0 | 16.0 | 0.00 | 0.00 | 0.00 | 59 | 1009.6 |
| 20260510070003 | 64 | 188 | 7.0 | 14.0 | 0.00 | 0.00 | 0.00 | 60 | 1009.4 |
| 20260510065503 | 64 | 183 | 7.0 | 18.0 | 0.00 | 0.00 | 0.00 | 60 | 1009.3 |
| 20260510065003 | 64 | 172 | 7.0 | 18.0 | 0.00 | 0.00 | 0.00 | 61 | 1009.4 |
| 20260510064503 | 64 | 186 | 6.0 | 14.0 | 0.00 | 0.00 | 0.00 | 60 | 1009.3 |
| 20260510064003 | 64 | 185 | 6.0 | 14.0 | 0.00 | 0.00 | 0.00 | 61 | 1009.3 |
| 20260510063503 | 64 | 185 | 7.0 | 14.0 | 0.00 | 0.00 | 0.00 | 61 | 1009.2 |
| 20260510063003 | 64 | 204 | 7.0 | 15.0 | 0.00 | 0.00 | 0.00 | 60 | 1009.4 |
| 20260510062503 | 63 | 201 | 6.0 | 15.0 | 0.00 | 0.00 | 0.00 | 61 | 1009.1 |
| 20260510062017 | 63 | 184 | 4.0 | 10.0 | 0.00 | 0.00 | 0.00 | 62 | 1009.1 |
| 20260510061517 | 62 | 183 | 5.0 | 12.0 | 0.00 | 0.00 | 0.00 | 62 | 1008.9 |
| 20260510061017 | 62 | 189 | 5.0 | 12.0 | 0.00 | 0.00 | 0.00 | 62 | 1009.0 |
| 20260510060517 | 62 | 186 | 5.0 | 12.0 | 0.00 | 0.00 | 0.00 | 62 | 1008.9 |
| 20260510060003 | 62 | 190 | 6.0 | 15.0 | 0.00 | 0.00 | 0.00 | 61 | 1008.8 |
| 20260510055517 | 63 | 195 | 6.0 | 15.0 | 0.00 | 0.00 | 0.00 | 61 | 1008.7 |
| 20260510055003 | 63 | 193 | 7.0 | 14.0 | 0.00 | 0.00 | 0.00 | 62 | 1008.7 |
| 20260510054503 | 63 | 192 | 7.0 | 14.0 | 0.00 | 0.00 | 0.00 | 61 | 1008.6 |
| 20260510054017 | 63 | 183 | 7.0 | 13.0 | 0.00 | 0.00 | 0.00 | 61 | 1008.6 |
| 20260510053503 | 63 | 190 | 7.0 | 15.0 | 0.00 | 0.00 | 0.00 | 61 | 1008.6 |
| 20260510053003 | 63 | 201 | 7.0 | 15.0 | 0.00 | 0.00 | 0.00 | 61 | 1008.6 |
| 20260510052503 | 63 | 207 | 6.0 | 13.0 | 0.00 | 0.00 | 0.00 | 62 | 1008.6 |
| 20260510052017 | 62 | 196 | 5.0 | 10.0 | 0.00 | 0.00 | 0.00 | 63 | 1008.7 |
| 20260510051503 | 62 | 194 | 6.0 | 12.0 | 0.00 | 0.00 | 0.00 | 63 | 1008.6 |
| 20260510051003 | 63 | 194 | 7.0 | 14.0 | 0.00 | 0.00 | 0.00 | 63 | 1008.4 |
| 20260510050503 | 63 | 190 | 7.0 | 14.0 | 0.00 | 0.00 | 0.00 | 63 | 1008.4 |
| 20260510050003 | 62 | 199 | 7.0 | 12.0 | 0.00 | 0.00 | 0.00 | 63 | 1008.5 |
| 20260510045503 | 62 | 208 | 6.0 | 12.0 | 0.00 | 0.00 | 0.00 | 65 | 1008.5 |
| 20260510045003 | 62 | 203 | 4.0 | 8.0 | 0.00 | 0.00 | 0.00 | 66 | 1008.5 |
| 20260510044517 | 62 | 205 | 4.0 | 8.0 | 0.00 | 0.00 | 0.00 | 66 | 1008.4 |
| 20260510044003 | 62 | 217 | 3.0 | 6.0 | 0.00 | 0.00 | 0.00 | 66 | 1008.5 |
| 20260510043503 | 62 | 196 | 3.0 | 9.0 | 0.00 | 0.00 | 0.00 | 65 | 1008.6 |
| 20260510043017 | 62 | 189 | 4.0 | 9.0 | 0.00 | 0.00 | 0.00 | 65 | 1008.5 |
| 20260510042503 | 62 | 200 | 5.0 | 8.0 | 0.00 | 0.00 | 0.00 | 64 | 1008.6 |
| 20260510042003 | 63 | 194 | 6.0 | 11.0 | 0.00 | 0.00 | 0.00 | 63 | 1008.6 |
| 20260510041503 | 63 | 199 | 6.0 | 16.0 | 0.00 | 0.00 | 0.00 | 62 | 1008.6 |
| 20260510041003 | 63 | 197 | 6.0 | 16.0 | 0.00 | 0.00 | 0.00 | 63 | 1008.7 |
| 20260510040503 | 63 | 186 | 6.0 | 11.0 | 0.00 | 0.00 | 0.00 | 63 | 1008.7 |
| 20260510040003 | 63 | 180 | 7.0 | 14.0 | 0.00 | 0.00 | 0.00 | 64 | 1008.6 |
| 20260510035503 | 63 | 173 | 6.0 | 15.0 | 0.00 | 0.00 | 0.00 | 63 | 1008.6 |
| 20260510035003 | 63 | 182 | 5.0 | 15.0 | 0.00 | 0.00 | 0.00 | 63 | 1008.7 |
| 20260510034517 | 63 | 194 | 5.0 | 9.0 | 0.00 | 0.00 | 0.00 | 63 | 1008.8 |
| 20260510034017 | 63 | 205 | 4.0 | 9.0 | 0.00 | 0.00 | 0.00 | 63 | 1008.7 |
| 20260510033503 | 63 | 204 | 4.0 | 8.0 | 0.00 | 0.00 | 0.00 | 63 | 1008.7 |
| 20260510033017 | 63 | 188 | 4.0 | 10.0 | 0.00 | 0.00 | 0.00 | 63 | 1008.6 |
| 20260510032503 | 63 | 189 | 4.0 | 10.0 | 0.00 | 0.00 | 0.00 | 63 | 1008.6 |
| 20260510032003 | 63 | 199 | 4.0 | 10.0 | 0.00 | 0.00 | 0.00 | 63 | 1008.6 |
| 20260510031517 | 64 | 198 | 4.0 | 10.0 | 0.00 | 0.00 | 0.00 | 64 | 1008.6 |
| 20260510031003 | 64 | 187 | 5.0 | 10.0 | 0.00 | 0.00 | 0.00 | 63 | 1008.6 |
| 20260510030503 | 64 | 186 | 5.0 | 9.0 | 0.00 | 0.00 | 0.00 | 63 | 1008.6 |
| 20260510030017 | 64 | 203 | 5.0 | 9.0 | 0.00 | 0.00 | 0.00 | 64 | 1008.6 |
| 20260510025503 | 64 | 204 | 5.0 | 10.0 | 0.00 | 0.00 | 0.00 | 64 | 1008.7 |
| 20260510025017 | 64 | 214 | 4.0 | 10.0 | 0.00 | 0.00 | 0.00 | 64 | 1008.4 |
| 20260510024517 | 64 | 217 | 4.0 | 9.0 | 0.00 | 0.00 | 0.00 | 64 | 1008.6 |
| 20260510024003 | 64 | 196 | 4.0 | 10.0 | 0.00 | 0.00 | 0.00 | 63 | 1008.5 |
| 20260510023517 | 64 | 187 | 5.0 | 11.0 | 0.00 | 0.00 | 0.00 | 63 | 1008.5 |
| 20260510023017 | 64 | 202 | 5.0 | 11.0 | 0.00 | 0.00 | 0.00 | 63 | 1008.4 |
| 20260510022503 | 64 | 224 | 3.0 | 10.0 | 0.00 | 0.00 | 0.00 | 63 | 1008.6 |
| 20260510022017 | 64 | 190 | 3.0 | 10.0 | 0.00 | 0.00 | 0.00 | 63 | 1008.5 |
| 20260510021503 | 64 | 188 | 4.0 | 8.0 | 0.00 | 0.00 | 0.00 | 63 | 1008.7 |
| 20260510021003 | 64 | 178 | 5.0 | 11.0 | 0.00 | 0.00 | 0.00 | 63 | 1008.7 |
| 20260510020503 | 64 | 174 | 6.0 | 11.0 | 0.00 | 0.00 | 0.00 | 62 | 1008.8 |
| 20260510020003 | 64 | 199 | 5.0 | 11.0 | 0.00 | 0.00 | 0.00 | 63 | 1008.6 |
| 20260510015503 | 64 | 208 | 4.0 | 10.0 | 0.00 | 0.00 | 0.00 | 64 | 1008.7 |
| 20260510015003 | 64 | 195 | 5.0 | 9.0 | 0.00 | 0.00 | 0.00 | 64 | 1008.7 |
| 20260510014503 | 64 | 192 | 6.0 | 11.0 | 0.00 | 0.00 | 0.00 | 63 | 1008.6 |
| 20260510014003 | 64 | 187 | 6.0 | 12.0 | 0.00 | 0.00 | 0.00 | 63 | 1008.5 |
| 20260510013503 | 64 | 182 | 5.0 | 12.0 | 0.00 | 0.00 | 0.00 | 63 | 1008.6 |
| 20260510013003 | 64 | 178 | 5.0 | 11.0 | 0.00 | 0.00 | 0.00 | 63 | 1008.6 |
| 20260510012503 | 64 | 184 | 5.0 | 11.0 | 0.00 | 0.00 | 0.00 | 63 | 1008.7 |
| 20260510012003 | 64 | 183 | 5.0 | 11.0 | 0.00 | 0.00 | 0.00 | 63 | 1008.7 |
| 20260510011503 | 64 | 176 | 6.0 | 12.0 | 0.00 | 0.00 | 0.00 | 62 | 1008.7 |
| 20260510011003 | 64 | 180 | 6.0 | 12.0 | 0.00 | 0.00 | 0.00 | 62 | 1008.8 |
| 20260510010517 | 64 | 183 | 6.0 | 16.0 | 0.00 | 0.00 | 0.00 | 62 | 1008.8 |
| 20260510010003 | 65 | 185 | 7.0 | 16.0 | 0.00 | 0.00 | 0.00 | 62 | 1008.7 |
| 20260510005503 | 65 | 185 | 8.0 | 17.0 | 0.00 | 0.00 | 0.00 | 61 | 1008.8 |
| 20260510005003 | 65 | 184 | 8.0 | 18.0 | 0.00 | 0.00 | 0.00 | 61 | 1008.8 |
| 20260510004503 | 65 | 189 | 7.0 | 18.0 | 0.00 | 0.00 | 0.00 | 62 | 1008.8 |
| 20260510004003 | 65 | 200 | 7.0 | 14.0 | 0.00 | 0.00 | 0.00 | 62 | 1008.8 |
| 20260510003503 | 65 | 183 | 7.0 | 16.0 | 0.00 | 0.00 | 0.00 | 61 | 1008.7 |
| 20260510003003 | 65 | 178 | 8.0 | 16.0 | 0.00 | 0.00 | 0.00 | 61 | 1008.6 |
| 20260510002517 | 65 | 179 | 7.0 | 15.0 | 0.00 | 0.00 | 0.00 | 61 | 1008.7 |
| 20260510002003 | 65 | 175 | 8.0 | 15.0 | 0.00 | 0.00 | 0.00 | 61 | 1008.6 |
| 20260510001503 | 65 | 181 | 7.0 | 16.0 | 0.00 | 0.00 | 0.00 | 60 | 1008.7 |
| 20260510001003 | 65 | 179 | 7.0 | 16.0 | 0.00 | 0.00 | 0.00 | 59 | 1008.7 |
| 20260510000503 | 66 | 182 | 7.0 | 14.0 | 0.00 | 0.00 | 0.00 | 59 | 1008.7 |
| 20260510000003 | 66 | 187 | 7.0 | 17.0 | 0.00 | 0.00 | 0.00 | 58 | 1008.7 |
| 20260509235503 | 66 | 184 | 7.0 | 17.0 | 0.00 | 0.00 | 0.00 | 58 | 1008.8 |
| 20260509235003 | 66 | 177 | 7.0 | 19.0 | 0.00 | 0.00 | 0.00 | 58 | 1008.7 |
| 20260509234503 | 66 | 186 | 7.0 | 19.0 | 0.00 | 0.00 | 0.00 | 58 | 1008.8 |
| 20260509234003 | 66 | 203 | 7.0 | 14.0 | 0.00 | 0.00 | 0.00 | 58 | 1008.8 |
| 20260509233517 | 66 | 195 | 7.0 | 14.0 | 0.00 | 0.00 | 0.00 | 58 | 1008.7 |
| 20260509233003 | 66 | 181 | 7.0 | 16.0 | 0.00 | 0.00 | 0.00 | 58 | 1008.6 |
| 20260509232503 | 66 | 179 | 6.0 | 16.0 | 0.00 | 0.00 | 0.00 | 59 | 1008.8 |
| 20260509232003 | 66 | 176 | 7.0 | 13.0 | 0.00 | 0.00 | 0.00 | 59 | 1008.9 |
| 20260509231503 | 66 | 173 | 7.0 | 12.0 | 0.00 | 0.00 | 0.00 | 60 | 1008.8 |
| 20260509231017 | 66 | 172 | 6.0 | 13.0 | 0.00 | 0.00 | 0.00 | 60 | 1008.8 |
| 20260509230503 | 66 | 173 | 6.0 | 13.0 | 0.00 | 0.00 | 0.00 | 60 | 1008.8 |
| 20260509230017 | 66 | 176 | 5.0 | 12.0 | 0.00 | 0.00 | 0.00 | 60 | 1008.9 |
| 20260509225517 | 66 | 182 | 4.0 | 11.0 | 0.00 | 0.00 | 0.00 | 59 | 1009.0 |
| 20260509225003 | 66 | 175 | 5.0 | 16.0 | 0.00 | 0.00 | 0.00 | 59 | 1009.0 |
| 20260509224503 | 66 | 166 | 6.0 | 16.0 | 0.00 | 0.00 | 0.00 | 59 | 1009.0 |
| 20260509224003 | 66 | 170 | 5.0 | 15.0 | 0.00 | 0.00 | 0.00 | 59 | 1009.0 |
| 20260509223503 | 66 | 175 | 5.0 | 15.0 | 0.00 | 0.00 | 0.00 | 59 | 1009.1 |
| 20260509223017 | 66 | 167 | 3.0 | 9.0 | 0.00 | 0.00 | 0.00 | 60 | 1009.2 |
| 20260509222503 | 66 | 159 | 4.0 | 11.0 | 0.00 | 0.00 | 0.00 | 59 | 1009.2 |
| 20260509222003 | 66 | 161 | 4.0 | 11.0 | 0.00 | 0.00 | 0.00 | 59 | 1009.2 |
| 20260509221503 | 66 | 158 | 4.0 | 10.0 | 0.00 | 0.00 | 0.00 | 59 | 1009.2 |
| 20260509221003 | 66 | 175 | 4.0 | 11.0 | 0.00 | 0.00 | 0.00 | 60 | 1009.2 |
| 20260509220503 | 65 | 201 | 4.0 | 11.0 | 0.00 | 0.00 | 0.00 | 61 | 1009.3 |
| 20260509220017 | 65 | 236 | 3.0 | 10.0 | 0.00 | 0.00 | 0.00 | 61 | 1009.2 |
| 20260509215503 | 66 | 277 | 1.0 | 9.0 | 0.00 | 0.00 | 0.00 | 60 | 1009.3 |